Location: Carri�res
(48.9069°N, 2.1792°E)
Time: 13:34:29
(UTC+00:00)

Cosmos 2344 - Pass Details

Date: 17 January 2021
Orbit: 1243 x 2999 km, 63.3° (Epoch: 25 February)

Event Time Altitude Azimuth Distance (km) Brightness Sun altitude
Rises 19:12:01 0° 315° (NW) 4,445 7.0 -26.8°
Reaches altitude 10° 19:14:39 10° 318° (NW) 3,591 6.4 -27.2°
Maximum altitude 19:23:31 66° 42° (NE) 1,909 4.2 -28.7°
Enters shadow 19:26:41 49° 100° (E) 2,337 4.4 -29.2°
